Location: *
(43.9905°S, 176.4941°W)
Time: 21:52:15
(UTC+00:00)

COSMOS 2406 - Pass Details

Date: 08 December 2019
Orbit: 844 x 863 km, 71.0° (Epoch: 26 January)

Event Time Altitude Azimuth Distance (km) Brightness Sun altitude
Rises 08:11:11 0° 210° (SSW) 3,466 8.1 -8.3°
Reaches altitude 10° 08:13:43 10° 214° (SW) 2,525 7.2 -8.6°
Maximum altitude 08:19:20 53° 289° (WNW) 1,066 3.9 -9.3°
Drops below altitude 10° 08:24:55 10° 4° (N) 2,505 5.2 -10.0°
Enters shadow 08:26:02 - 6° (N) 2,918 5.5 -10.2°
